Regional Weather Roundup
Issued by NWS State College, PA

Home | Current Version | Previous Version | Text Only | Print | Product List | Glossary On
Versions: 1 2 3 4 5 6 7 8 9 10 11 12 13 14 15 16 17 18 19 20 21 22 23 24 25 26 27 28 29 30 31 32 33 34 35 36 37 38 39 40 41 42 43 44 45 46 47 48 49 50
498
ASUS41 KCTP 250110
RWRCTP

REGIONAL WEATHER ROUNDUP
NATIONAL WEATHER SERVICE STATE COLLEGE PA
900 PM EDT WED AUG 24 2016

Note: "fair" indicates few or no clouds below 12,000 feet with no
significant weather and/or obstructions to visibility.

* = STATION THAT DOES NOT REPORT PRECIPITATION /E.G. RAIN...SNOW...ETC/
    THUNDER OR FOG.

PAZ002>004-007>009-013>016-020>023-029>032-250200-
WESTERN PENNSYLVANIA

CITY           SKY/WX    TMP DP  RH WIND       PRES   REMARKS
ERIE           CLOUDY    80  61  52 S12       30.04S
MEADVILLE      PTCLDY    75  61  61 VRB6      30.10S
FRANKLIN*      PTCLDY    73  61  64 S8        30.12F
NEW CASTLE     FAIR      77  64  64 CALM      30.11S
BEAVER COUNTY  CLEAR     75  64  69 CALM      30.13S
BUTLER*        NOT AVBL
PITTSBURGH INT MOCLDY    79  63  57 S5        30.12S
PITTSBURGH     CLEAR     78  62  57 S6        30.12F
INDIANA*       CLEAR     73  66  78 CALM      30.17S
LATROBE        CLEAR     75  64  69 S7        30.14F
WASHINGTON CO* CLEAR     72  64  78 S3        30.14S
$$

PAZ004>006-010>012-017>019-024>028-033>037-041-042-045-046-049>053-250200-
CENTRAL PENNSYLVANIA

CITY           SKY/WX    TMP DP  RH WIND       PRES   REMARKS
BRADFORD       CLOUDY    70  61  73 CALM      30.16S
DUBOIS         CLOUDY    74  59  59 S3        30.15S
CLEARFIELD     CLOUDY    74  60  61 CALM      30.16S
JOHNSTOWN      CLEAR     74  60  61 S6        30.20S
ALTOONA        CLEAR     74  65  73 SW6       30.18R
STATE COLLEGE  PTCLDY    75  64  69 CALM      30.16R
WILLIAMSPORT   PTCLDY    80  62  54 S12G21    30.11S
SELINSGROVE    CLEAR     74  68  81 S3        30.14S
FT INDIANTOWN  CLEAR     75  65  72 VRB2      30.18R
CAPITAL CITY   CLEAR     77  64  64 S14       30.15S
HARRISBURG     PTCLDY    77  68  73 S7        30.16R
YORK           CLEAR     75  65  70 VRB5      30.18S
$$

PAZ038>040-043-044-047-048-054-055-060>062-067>071-250200-
EASTERN PENNSYLVANIA

CITY           SKY/WX    TMP DP  RH WIND       PRES   REMARKS
SCRANTON       CLEAR     75  62  64 S7        30.16F
MOUNT POCONO   CLEAR     62  58  86 CALM      30.23S
ALLENTOWN      CLEAR     78  61  55 S8        30.17S
QUAKERTOWN*    CLEAR     72  61  68 CALM      30.20R
READING        CLEAR     75  63  66 S5        30.17R
LANCASTER      CLEAR     74  66  76 S6        30.18R
COATESVILLE    CLEAR     72  63  73 CALM      30.21S
POTTSTOWN      CLEAR     72  62  71 CALM      30.20R
BLUE BELL      CLEAR     73  63  68 SW6       30.19R
DOYLESTOWN     CLEAR     76  62  62 S3        30.18R
WILLOW GROVE   NOT AVBL
NORTH PHILA    CLEAR     79  64  60 S8        30.20R
PHILADELPHIA   MOCLDY    76  61  59 S13       30.19S
$$




USA.gov is the U.S. government's official web portal to all federal, state and local government web resources and services.